Tracking 21612 objects as of 20-Oct-2020
HD Live streaming from Space Station
objects crossing your sky now

COSMOS 1481 DEB

Track COSMOS 1481 DEB now!


NORAD ID: 20412
Int'l Code: 1983-070F
Perigee: 4,551.6 km
Apogee: 35,167.2 km
Inclination: 72.0 °
Period: 704.6 minutes
Semi major axis: 26230 km
RCS: 0.1262 m2 (medium)
Launch date: July 8, 1983
Source: Commonwealth of Independent States (former USSR) (CIS)
Launch site: PLESETSK MISSILE AND SPACE COMPLEX (PKMTR)

Note: This is SATELLITE DEBRIS
aabbcc
Your satellite tracking list
Your tracking list is empty




NASA's NSSDC Master Catalog

Two Line Element Set (TLE):
1 20412U 83070F   20287.28107084 -.00000699 +00000-0 +00000-0 0  9991
2 20412 071.9933 024.8064 5835891 308.2067 012.3862 02.04359787230846
Source of the keplerian elements: AFSPC